TimeEDT,TemperatureF,Dew PointF,Humidity,Sea Level PressureIn,VisibilityMPH,Wind Direction,Wind SpeedMPH,Gust SpeedMPH,PrecipitationIn,Events,Conditions,WindDirDegrees,DateUTC
12:51 AM,37.9,37.9,100,30.03,2.0,Calm,Calm,-,N/A,,Scattered Clouds,0,2013-09-26 04:51:00
12:56 AM,37.4,37.4,100,30.01,1.2,Calm,Calm,-,N/A,,Mostly Cloudy,0,2013-09-26 04:56:00
1:04 AM,37.4,37.4,100,30.02,3.0,Calm,Calm,-,N/A,,Mostly Cloudy,0,2013-09-26 05:04:00
1:40 AM,37.4,37.4,100,30.03,1.8,NE,4.6,-,N/A,,Mostly Cloudy,40,2013-09-26 05:40:00
1:51 AM,39.0,37.9,96,30.04,0.5,NNE,5.8,-,N/A,Fog,Fog,30,2013-09-26 05:51:00
1:56 AM,39.2,39.2,100,30.03,1.5,NE,4.6,-,N/A,,Scattered Clouds,40,2013-09-26 05:56:00
2:00 AM,41.0,41.0,100,30.03,3.0,NNE,3.5,-,N/A,,Partly Cloudy,30,2013-09-26 06:00:00
2:28 AM,39.2,39.2,100,30.02,1.8,Calm,Calm,-,N/A,,Scattered Clouds,0,2013-09-26 06:28:00
2:36 AM,39.2,39.2,100,30.03,0.8,Calm,Calm,-,N/A,,Mist,0,2013-09-26 06:36:00
2:51 AM,37.9,37.9,100,30.04,0.2,Calm,Calm,-,N/A,Fog,Fog,0,2013-09-26 06:51:00
3:07 AM,35.6,35.6,100,30.03,0.5,Calm,Calm,-,N/A,Fog,Fog,0,2013-09-26 07:07:00
3:19 AM,37.4,35.6,93,30.03,0.2,Calm,Calm,-,N/A,Fog,Fog,0,2013-09-26 07:19:00
3:28 AM,37.4,37.4,100,30.03,0.2,Calm,Calm,-,N/A,Fog,Fog,0,2013-09-26 07:28:00
3:36 AM,35.6,35.6,100,30.03,0.5,Calm,Calm,-,N/A,Fog,Fog,0,2013-09-26 07:36:00
3:49 AM,35.6,35.6,100,30.03,0.2,Calm,Calm,-,N/A,Fog,Fog,0,2013-09-26 07:49:00
3:51 AM,35.1,35.1,100,30.05,0.2,Calm,Calm,-,N/A,Fog,Fog,0,2013-09-26 07:51:00
4:51 AM,36.0,35.1,97,30.05,0.2,Calm,Calm,-,N/A,Fog,Fog,0,2013-09-26 08:51:00
5:51 AM,34.0,34.0,100,30.06,0.2,Calm,Calm,-,N/A,Fog,Fog,0,2013-09-26 09:51:00
6:17 AM,33.8,33.8,100,30.05,0.5,Calm,Calm,-,N/A,Fog,Fog,0,2013-09-26 10:17:00
6:27 AM,33.8,33.8,100,30.05,0.2,Calm,Calm,-,N/A,Fog,Fog,0,2013-09-26 10:27:00
6:51 AM,33.1,33.1,100,30.09,0.2,Calm,Calm,-,N/A,Fog,Fog,0,2013-09-26 10:51:00
7:41 AM,33.8,33.8,100,30.07,0.8,Calm,Calm,-,N/A,,Mist,0,2013-09-26 11:41:00
7:48 AM,33.8,33.8,100,30.07,2.0,Calm,Calm,-,N/A,,Scattered Clouds,0,2013-09-26 11:48:00
7:49 AM,34.0,34.0,100,30.11,2.0,Calm,Calm,-,N/A,,Scattered Clouds,0,2013-09-26 11:49:00
7:57 AM,35.6,35.6,100,30.08,4.0,Calm,Calm,-,N/A,,Partly Cloudy,0,2013-09-26 11:57:00
8:51 AM,45.0,43.0,93,30.11,10.0,NE,4.6,-,N/A,,Clear,50,2013-09-26 12:51:00
9:51 AM,50.0,44.1,80,30.12,10.0,ENE,6.9,-,N/A,,Clear,70,2013-09-26 13:51:00
10:51 AM,54.0,43.0,66,30.12,10.0,ENE,10.4,-,N/A,,Partly Cloudy,70,2013-09-26 14:51:00
11:51 AM,57.0,43.0,59,30.12,10.0,ENE,9.2,-,N/A,,Partly Cloudy,70,2013-09-26 15:51:00
12:51 PM,59.0,43.0,55,30.12,10.0,ENE,6.9,-,N/A,,Partly Cloudy,70,2013-09-26 16:51:00
1:51 PM,59.0,43.0,55,30.11,10.0,ESE,9.2,-,N/A,,Scattered Clouds,110,2013-09-26 17:51:00
2:51 PM,59.0,44.1,58,30.11,10.0,East,10.4,-,N/A,,Scattered Clouds,80,2013-09-26 18:51:00
3:51 PM,57.9,44.1,60,30.12,10.0,East,10.4,-,N/A,,Clear,80,2013-09-26 19:51:00
4:51 PM,57.0,43.0,59,30.14,10.0,East,11.5,-,N/A,,Clear,80,2013-09-26 20:51:00
5:51 PM,55.0,43.0,64,30.15,10.0,ENE,9.2,-,N/A,,Clear,70,2013-09-26 21:51:00
6:51 PM,50.0,43.0,77,30.17,10.0,ENE,4.6,-,N/A,,Clear,60,2013-09-26 22:51:00
7:51 PM,46.0,42.1,86,30.19,10.0,Calm,Calm,-,N/A,,Clear,0,2013-09-26 23:51:00
8:51 PM,48.9,44.1,83,30.19,10.0,ENE,3.5,-,N/A,,Mostly Cloudy,60,2013-09-27 00:51:00
9:17 PM,48.2,44.6,87,30.17,10.0,ENE,3.5,-,N/A,,Scattered Clouds,70,2013-09-27 01:17:00
9:49 PM,46.4,44.6,93,30.17,10.0,Calm,Calm,-,N/A,,Mostly Cloudy,0,2013-09-27 01:49:00
9:51 PM,46.9,44.1,90,30.19,10.0,Calm,Calm,-,N/A,,Mostly Cloudy,0,2013-09-27 01:51:00
10:51 PM,50.0,45.0,83,30.19,10.0,Calm,Calm,-,N/A,,Overcast,0,2013-09-27 02:51:00
11:51 PM,50.0,45.0,83,30.18,10.0,Calm,Calm,-,N/A,,Overcast,0,2013-09-27 03:51:00